This is the latest recevied weather packets stored in our database for station/object S51UL-6. If no packets are shown the sender has not sent any weather packets the latest 10 day(s).
| Time | Temp. | Humidity | Pressure | Rain* | Wind** | Luminosity | Snow |
|---|---|---|---|---|---|---|---|
| 1787671407 | 26.11° C | 59% | 1012.2 hPa | 0 mm | - | - | - |
| 1787671106 | 26.67° C | 59% | 1012.3 hPa | 0 mm | - | - | - |
| 1787670806 | 26.67° C | 58% | 1012.2 hPa | 0 mm | - | - | - |
| 1787670506 | 26.67° C | 57% | 1012.4 hPa | 0 mm | - | - | - |
| 1787670206 | 27.22° C | 57% | 1012.4 hPa | 0 mm | - | - | - |
| 1787669906 | 27.22° C | 56% | 1012.2 hPa | 0 mm | - | - | - |
| 1787669307 | 27.78° C | 57% | 1012.2 hPa | 0 mm | - | - | - |
| 1787668707 | 27.78° C | 57% | 1012.5 hPa | 0 mm | - | - | - |
| 1787668107 | 28.33° C | 56% | 1012.5 hPa | 0 mm | - | - | - |
| 1787667807 | 28.33° C | 55% | 1012.7 hPa | 0 mm | - | - | - |
| 1787667507 | 28.89° C | 55% | 1012.5 hPa | 0 mm | - | - | - |
| 1787667207 | 29.44° C | 54% | 1012.6 hPa | 0 mm | - | - | - |
| 1787666909 | 29.44° C | 55% | 1012.7 hPa | 0 mm | - | - | - |
| 1787666607 | 29.44° C | 55% | 1012.6 hPa | 0 mm | - | - | - |
| 1787666307 | 28.89° C | 55% | 1012.5 hPa | 0 mm | - | - | - |
| 1787666007 | 29.44° C | 52% | 1012.6 hPa | 0 mm | - | - | - |
| 1787665707 | 30° C | 52% | 1012.3 hPa | 0 mm | - | - | - |
| 1787665107 | 30.56° C | 53% | 1012.4 hPa | 0 mm | - | - | - |
| 1787664807 | 30.56° C | 53% | 1012.3 hPa | 0 mm | - | - | - |
| 1787664207 | 30° C | 56% | 1012.5 hPa | 0 mm | - | - | - |
| 1787663907 | 29.44° C | 56% | 1012.5 hPa | 0 mm | - | - | - |
| 1787663607 | 29.44° C | 56% | 1012.6 hPa | 0 mm | - | - | - |
| 1787663308 | 29.44° C | 56% | 1012.5 hPa | 0 mm | - | - | - |
| 1787663007 | 28.89° C | 57% | 1012.5 hPa | 0 mm | - | - | - |
| 1787662708 | 28.89° C | 55% | 1012.5 hPa | 0 mm | - | - | - |
* Rain latest hour (hover to see other rain measurements)
** Current wind speed in m/s (hover to see current wind gust speed)